Year,Month,Day,Hour,Minute,Value (Times are PST for insolation in W/m^2)
2019,12,09,00,00,0.00
2019,12,09,00,01,0.00
2019,12,09,00,02,0.00
2019,12,09,00,03,0.00
2019,12,09,00,04,0.00
2019,12,09,00,05,0.00
2019,12,09,00,06,0.00
2019,12,09,00,07,0.00
2019,12,09,00,08,0.00
2019,12,09,00,09,0.00
2019,12,09,00,10,0.00
2019,12,09,00,11,0.00
2019,12,09,00,12,0.00
2019,12,09,00,13,0.00
2019,12,09,00,14,0.00
2019,12,09,00,15,0.00
2019,12,09,00,16,0.00
2019,12,09,00,17,0.00
2019,12,09,00,18,0.00
2019,12,09,00,19,0.00
2019,12,09,00,20,0.00
2019,12,09,00,21,0.00
2019,12,09,00,22,0.00
2019,12,09,00,23,0.00
2019,12,09,00,24,0.00
2019,12,09,00,25,0.00
2019,12,09,00,26,0.00
2019,12,09,00,27,0.00
2019,12,09,00,28,0.00
2019,12,09,00,29,0.00
2019,12,09,00,30,0.00
2019,12,09,00,31,0.00
2019,12,09,00,32,0.00
2019,12,09,00,33,0.00
2019,12,09,00,34,0.00
2019,12,09,00,35,0.00
2019,12,09,00,36,0.00
2019,12,09,00,37,0.00
2019,12,09,00,38,0.00
2019,12,09,00,39,0.00
2019,12,09,00,40,0.00
2019,12,09,00,41,0.00
2019,12,09,00,42,0.00
2019,12,09,00,43,0.00
2019,12,09,00,44,0.00
2019,12,09,00,45,0.00
2019,12,09,00,46,0.00
2019,12,09,00,47,0.00
2019,12,09,00,48,0.00
2019,12,09,00,49,0.00
2019,12,09,00,50,0.00
2019,12,09,00,51,0.00
2019,12,09,00,52,0.00
2019,12,09,00,53,0.00
2019,12,09,00,54,0.00
2019,12,09,00,55,0.00
2019,12,09,00,56,0.00
2019,12,09,00,57,0.00
2019,12,09,00,58,0.00
2019,12,09,00,59,0.00
2019,12,09,01,00,0.00
2019,12,09,01,01,0.00
2019,12,09,01,02,0.00
2019,12,09,01,03,0.00
2019,12,09,01,04,0.00
2019,12,09,01,05,0.00
2019,12,09,01,06,0.00
2019,12,09,01,07,0.00
2019,12,09,01,08,0.00
2019,12,09,01,09,0.00
2019,12,09,01,10,0.00
2019,12,09,01,11,0.00
2019,12,09,01,12,0.00
2019,12,09,01,13,0.00
2019,12,09,01,14,0.00
2019,12,09,01,15,0.00
2019,12,09,01,16,0.00
2019,12,09,01,17,0.00
2019,12,09,01,18,0.00
2019,12,09,01,19,0.00
2019,12,09,01,20,0.00
2019,12,09,01,21,0.00
2019,12,09,01,22,0.00
2019,12,09,01,23,0.00
2019,12,09,01,24,0.00
2019,12,09,01,25,0.00
2019,12,09,01,26,0.00
2019,12,09,01,27,0.00
2019,12,09,01,28,0.00
2019,12,09,01,29,0.00
2019,12,09,01,30,0.00
2019,12,09,01,31,0.00
2019,12,09,01,32,0.00
2019,12,09,01,33,0.00
2019,12,09,01,34,0.00
2019,12,09,01,35,0.00
2019,12,09,01,36,0.00
2019,12,09,01,37,0.00
2019,12,09,01,38,0.00
2019,12,09,01,39,0.00
2019,12,09,01,40,0.00
2019,12,09,01,41,0.00
2019,12,09,01,42,0.00
2019,12,09,01,43,0.00
2019,12,09,01,44,0.00
2019,12,09,01,45,0.00
2019,12,09,01,46,0.00
2019,12,09,01,47,0.00
2019,12,09,01,48,0.00
2019,12,09,01,49,0.00
2019,12,09,01,50,0.00
2019,12,09,01,51,0.00
2019,12,09,01,52,0.00
2019,12,09,01,53,0.00
2019,12,09,01,54,0.00
2019,12,09,01,55,0.00
2019,12,09,01,56,0.00
2019,12,09,01,57,0.00
2019,12,09,01,58,0.00
2019,12,09,01,59,0.00
2019,12,09,02,00,0.00
2019,12,09,02,01,0.00
2019,12,09,02,02,0.00
2019,12,09,02,03,0.00
2019,12,09,02,04,0.00
2019,12,09,02,05,0.00
2019,12,09,02,06,0.00
2019,12,09,02,07,0.00
2019,12,09,02,08,0.00
2019,12,09,02,09,0.00
2019,12,09,02,10,0.00
2019,12,09,02,11,0.00
2019,12,09,02,12,0.00
2019,12,09,02,13,0.00
2019,12,09,02,14,0.00
2019,12,09,02,15,0.00
2019,12,09,02,16,0.00
2019,12,09,02,17,0.00
2019,12,09,02,18,0.00
2019,12,09,02,19,0.00
2019,12,09,02,20,0.00
2019,12,09,02,21,0.00
2019,12,09,02,22,0.00
2019,12,09,02,23,0.00
2019,12,09,02,24,0.00
2019,12,09,02,25,0.00
2019,12,09,02,26,0.00
2019,12,09,02,27,0.00
2019,12,09,02,28,0.00
2019,12,09,02,29,0.00
2019,12,09,02,30,0.00
2019,12,09,02,31,0.00
2019,12,09,02,32,0.00
2019,12,09,02,33,0.00
2019,12,09,02,34,0.00
2019,12,09,02,35,0.00
2019,12,09,02,36,0.00
2019,12,09,02,37,0.00
2019,12,09,02,38,0.00
2019,12,09,02,39,0.00
2019,12,09,02,40,0.00
2019,12,09,02,41,0.00
2019,12,09,02,42,0.00
2019,12,09,02,43,0.00
2019,12,09,02,44,0.00
2019,12,09,02,45,0.00
2019,12,09,02,46,0.00
2019,12,09,02,47,0.00
2019,12,09,02,48,0.00
2019,12,09,02,49,0.00
2019,12,09,02,50,0.00
2019,12,09,02,51,0.00
2019,12,09,02,52,0.00
2019,12,09,02,53,0.00
2019,12,09,02,54,0.00
2019,12,09,02,55,0.00
2019,12,09,02,56,0.00
2019,12,09,02,57,0.00
2019,12,09,02,58,0.00
2019,12,09,02,59,0.00
2019,12,09,03,00,0.00
2019,12,09,03,01,0.00
2019,12,09,03,02,0.00
2019,12,09,03,03,0.00
2019,12,09,03,04,0.00
2019,12,09,03,05,0.00
2019,12,09,03,06,0.00
2019,12,09,03,07,0.00
2019,12,09,03,08,0.00
2019,12,09,03,09,0.00
2019,12,09,03,10,0.00
2019,12,09,03,11,0.00
2019,12,09,03,12,0.00
2019,12,09,03,13,0.00
2019,12,09,03,14,0.00
2019,12,09,03,15,0.00
2019,12,09,03,16,0.00
2019,12,09,03,17,0.00
2019,12,09,03,18,0.00
2019,12,09,03,19,0.00
2019,12,09,03,20,0.00
2019,12,09,03,21,0.00
2019,12,09,03,22,0.00
2019,12,09,03,23,0.00
2019,12,09,03,24,0.00
2019,12,09,03,25,0.00
2019,12,09,03,26,0.00
2019,12,09,03,27,0.00
2019,12,09,03,28,0.00
2019,12,09,03,29,0.00
2019,12,09,03,30,0.00
2019,12,09,03,31,0.00
2019,12,09,03,32,0.00
2019,12,09,03,33,0.00
2019,12,09,03,34,0.00
2019,12,09,03,35,0.00
2019,12,09,03,36,0.00
2019,12,09,03,37,0.00
2019,12,09,03,38,0.00
2019,12,09,03,39,0.00
2019,12,09,03,40,0.00
2019,12,09,03,41,0.00
2019,12,09,03,42,0.00
2019,12,09,03,43,0.00
2019,12,09,03,44,0.00
2019,12,09,03,45,0.00
2019,12,09,03,46,0.00
2019,12,09,03,47,0.00
2019,12,09,03,48,0.00
2019,12,09,03,49,0.00
2019,12,09,03,50,0.00
2019,12,09,03,51,0.00
2019,12,09,03,52,0.00
2019,12,09,03,53,0.00
2019,12,09,03,54,0.00
2019,12,09,03,55,0.00
2019,12,09,03,56,0.00
2019,12,09,03,57,0.00
2019,12,09,03,58,0.00
2019,12,09,03,59,0.00
2019,12,09,04,00,0.00
2019,12,09,04,01,0.00
2019,12,09,04,02,0.00
2019,12,09,04,03,0.00
2019,12,09,04,04,0.00
2019,12,09,04,05,0.00
2019,12,09,04,06,0.00
2019,12,09,04,07,0.00
2019,12,09,04,08,0.00
2019,12,09,04,09,0.00
2019,12,09,04,10,0.00
2019,12,09,04,11,0.00
2019,12,09,04,12,0.00
2019,12,09,04,13,0.00
2019,12,09,04,14,0.00
2019,12,09,04,15,0.00
2019,12,09,04,16,0.00
2019,12,09,04,17,0.00
2019,12,09,04,18,0.00
2019,12,09,04,19,0.00
2019,12,09,04,20,0.00
2019,12,09,04,21,0.00
2019,12,09,04,22,0.00
2019,12,09,04,23,0.00
2019,12,09,04,24,0.00
2019,12,09,04,25,0.00
2019,12,09,04,26,0.00
2019,12,09,04,27,0.00
2019,12,09,04,28,0.00
2019,12,09,04,29,0.00
2019,12,09,04,30,0.00
2019,12,09,04,31,0.00
2019,12,09,04,32,0.00
2019,12,09,04,33,0.00
2019,12,09,04,34,0.00
2019,12,09,04,35,0.00
2019,12,09,04,36,0.00
2019,12,09,04,37,0.00
2019,12,09,04,38,0.00
2019,12,09,04,39,0.00
2019,12,09,04,40,0.00
2019,12,09,04,41,0.00
2019,12,09,04,42,0.00
2019,12,09,04,43,0.00
2019,12,09,04,44,0.00
2019,12,09,04,45,0.00
2019,12,09,04,46,0.00
2019,12,09,04,47,0.00
2019,12,09,04,48,0.00
2019,12,09,04,49,0.00
2019,12,09,04,50,0.00
2019,12,09,04,51,0.00
2019,12,09,04,52,0.00
2019,12,09,04,53,0.00
2019,12,09,04,54,0.00
2019,12,09,04,55,0.00
2019,12,09,04,56,0.00
2019,12,09,04,57,0.00
2019,12,09,04,58,0.00
2019,12,09,04,59,0.00
2019,12,09,05,00,0.00
2019,12,09,05,01,0.00
2019,12,09,05,02,0.00
2019,12,09,05,03,0.00
2019,12,09,05,04,0.00
2019,12,09,05,05,0.00
2019,12,09,05,06,0.00
2019,12,09,05,07,0.00
2019,12,09,05,08,0.00
2019,12,09,05,09,0.00
2019,12,09,05,10,0.00
2019,12,09,05,11,0.00
2019,12,09,05,12,0.00
2019,12,09,05,13,0.00
2019,12,09,05,14,0.00
2019,12,09,05,15,0.00
2019,12,09,05,16,0.00
2019,12,09,05,17,0.00
2019,12,09,05,18,0.00
2019,12,09,05,19,0.00
2019,12,09,05,20,0.00
2019,12,09,05,21,0.00
2019,12,09,05,22,0.00
2019,12,09,05,23,0.00
2019,12,09,05,24,0.00
2019,12,09,05,25,0.00
2019,12,09,05,26,0.00
2019,12,09,05,27,0.00
2019,12,09,05,28,0.00
2019,12,09,05,29,0.00
2019,12,09,05,30,0.00
2019,12,09,05,31,0.00
2019,12,09,05,32,0.00
2019,12,09,05,33,0.00
2019,12,09,05,34,0.00
2019,12,09,05,35,0.00
2019,12,09,05,36,0.00
2019,12,09,05,37,0.00
2019,12,09,05,38,0.00
2019,12,09,05,39,0.00
2019,12,09,05,40,0.00
2019,12,09,05,41,0.00
2019,12,09,05,42,0.00
2019,12,09,05,43,0.00
2019,12,09,05,44,0.00
2019,12,09,05,45,0.00
2019,12,09,05,46,0.00
2019,12,09,05,47,0.00
2019,12,09,05,48,0.00
2019,12,09,05,49,0.00
2019,12,09,05,50,0.00
2019,12,09,05,51,0.00
2019,12,09,05,52,0.00
2019,12,09,05,53,0.00
2019,12,09,05,54,0.00
2019,12,09,05,55,0.00
2019,12,09,05,56,0.00
2019,12,09,05,57,0.00
2019,12,09,05,58,0.00
2019,12,09,05,59,0.00
2019,12,09,06,00,0.00
2019,12,09,06,01,0.00
2019,12,09,06,02,0.00
2019,12,09,06,03,0.00
2019,12,09,06,04,0.00
2019,12,09,06,05,0.00
2019,12,09,06,06,0.00
2019,12,09,06,07,0.00
2019,12,09,06,08,0.00
2019,12,09,06,09,0.00
2019,12,09,06,10,0.00
2019,12,09,06,11,0.00
2019,12,09,06,12,0.00
2019,12,09,06,13,0.00
2019,12,09,06,14,0.00
2019,12,09,06,15,0.00
2019,12,09,06,16,0.00
2019,12,09,06,17,0.00
2019,12,09,06,18,0.00
2019,12,09,06,19,0.00
2019,12,09,06,20,0.00
2019,12,09,06,21,0.00
2019,12,09,06,22,0.00
2019,12,09,06,23,0.00
2019,12,09,06,24,0.00
2019,12,09,06,25,0.00
2019,12,09,06,26,0.00
2019,12,09,06,27,0.00
2019,12,09,06,28,0.00
2019,12,09,06,29,0.00
2019,12,09,06,30,0.00
2019,12,09,06,31,0.00
2019,12,09,06,32,0.00
2019,12,09,06,33,0.00
2019,12,09,06,34,0.00
2019,12,09,06,35,0.00
2019,12,09,06,36,0.00
2019,12,09,06,37,0.00
2019,12,09,06,38,0.00
2019,12,09,06,39,0.00
2019,12,09,06,40,0.00
2019,12,09,06,41,0.00
2019,12,09,06,42,0.00
2019,12,09,06,43,0.00
2019,12,09,06,44,0.00
2019,12,09,06,45,0.00
2019,12,09,06,46,0.00
2019,12,09,06,47,0.00
2019,12,09,06,48,0.00
2019,12,09,06,49,0.00
2019,12,09,06,50,0.00
2019,12,09,06,51,0.00
2019,12,09,06,52,0.00
2019,12,09,06,53,0.00
2019,12,09,06,54,0.00
2019,12,09,06,55,0.00
2019,12,09,06,56,0.00
2019,12,09,06,57,0.00
2019,12,09,06,58,0.00
2019,12,09,06,59,0.00
2019,12,09,07,00,0.00
2019,12,09,07,01,0.00
2019,12,09,07,02,0.00
2019,12,09,07,03,0.00
2019,12,09,07,04,0.00
2019,12,09,07,05,0.00
2019,12,09,07,06,0.00
2019,12,09,07,07,0.00
2019,12,09,07,08,0.00
2019,12,09,07,09,0.00
2019,12,09,07,10,0.00
2019,12,09,07,11,0.00
2019,12,09,07,12,0.00
2019,12,09,07,13,0.00
2019,12,09,07,14,0.00
2019,12,09,07,15,0.00
2019,12,09,07,16,0.00
2019,12,09,07,17,0.00
2019,12,09,07,18,0.00
2019,12,09,07,19,0.00
2019,12,09,07,20,0.00
2019,12,09,07,21,0.00
2019,12,09,07,22,0.00
2019,12,09,07,23,0.00
2019,12,09,07,24,0.00
2019,12,09,07,25,0.00
2019,12,09,07,26,0.00
2019,12,09,07,27,0.00
2019,12,09,07,28,0.00
2019,12,09,07,29,0.00
2019,12,09,07,30,0.00
2019,12,09,07,31,0.00
2019,12,09,07,32,0.00
2019,12,09,07,33,0.00
2019,12,09,07,34,0.00
2019,12,09,07,35,0.00
2019,12,09,07,36,0.00
2019,12,09,07,37,0.00
2019,12,09,07,38,0.00
2019,12,09,07,39,0.00
2019,12,09,07,40,0.00
2019,12,09,07,41,0.00
2019,12,09,07,42,0.00
2019,12,09,07,43,0.00
2019,12,09,07,44,0.00
2019,12,09,07,45,0.00
2019,12,09,07,46,0.00
2019,12,09,07,47,0.00
2019,12,09,07,48,0.00
2019,12,09,07,49,0.00
2019,12,09,07,50,0.00
2019,12,09,07,51,0.00
2019,12,09,07,52,0.00
2019,12,09,07,53,0.00
2019,12,09,07,54,0.00
2019,12,09,07,55,0.00
2019,12,09,07,56,0.00
2019,12,09,07,57,0.00
2019,12,09,07,58,0.00
2019,12,09,07,59,0.00
2019,12,09,08,00,0.00
2019,12,09,08,01,0.00
2019,12,09,08,02,0.00
2019,12,09,08,03,0.00
2019,12,09,08,04,0.00
2019,12,09,08,05,0.00
2019,12,09,08,06,0.00
2019,12,09,08,07,0.00
2019,12,09,08,08,0.00
2019,12,09,08,09,0.00
2019,12,09,08,10,0.00
2019,12,09,08,11,0.00
2019,12,09,08,12,0.00
2019,12,09,08,13,0.00
2019,12,09,08,14,0.00
2019,12,09,08,15,0.00
2019,12,09,08,16,0.00
2019,12,09,08,17,0.00
2019,12,09,08,18,0.00
2019,12,09,08,19,0.00
2019,12,09,08,20,0.00
2019,12,09,08,21,0.00
2019,12,09,08,22,0.00
2019,12,09,08,23,0.00
2019,12,09,08,24,0.00
2019,12,09,08,25,0.00
2019,12,09,08,26,0.00
2019,12,09,08,27,0.00
2019,12,09,08,28,0.00
2019,12,09,08,29,0.00
2019,12,09,08,30,0.00
2019,12,09,08,31,0.00
2019,12,09,08,32,0.00
2019,12,09,08,33,0.00
2019,12,09,08,34,0.00
2019,12,09,08,35,4.60
2019,12,09,08,36,5.00
2019,12,09,08,37,5.00
2019,12,09,08,38,5.00
2019,12,09,08,39,5.00
2019,12,09,08,40,5.00
2019,12,09,08,41,5.00
2019,12,09,08,42,5.00
2019,12,09,08,43,5.00
2019,12,09,08,44,5.00
2019,12,09,08,45,5.00
2019,12,09,08,46,5.00
2019,12,09,08,47,5.00
2019,12,09,08,48,5.00
2019,12,09,08,49,5.10
2019,12,09,08,50,7.00
2019,12,09,08,51,7.00
2019,12,09,08,52,7.80
2019,12,09,08,53,9.00
2019,12,09,08,54,9.00
2019,12,09,08,55,10.60
2019,12,09,08,56,11.00
2019,12,09,08,57,11.00
2019,12,09,08,58,11.00
2019,12,09,08,59,11.00
2019,12,09,09,00,11.50
2019,12,09,09,01,12.00
2019,12,09,09,02,12.00
2019,12,09,09,03,11.10
2019,12,09,09,04,11.00
2019,12,09,09,05,11.30
2019,12,09,09,06,12.00
2019,12,09,09,07,12.00
2019,12,09,09,08,11.30
2019,12,09,09,09,11.00
2019,12,09,09,10,11.00
2019,12,09,09,11,12.00
2019,12,09,09,12,12.00
2019,12,09,09,13,12.00
2019,12,09,09,14,12.00
2019,12,09,09,15,12.00
2019,12,09,09,16,12.00
2019,12,09,09,17,12.00
2019,12,09,09,18,12.00
2019,12,09,09,19,12.00
2019,12,09,09,20,12.00
2019,12,09,09,21,12.00
2019,12,09,09,22,12.00
2019,12,09,09,23,13.60
2019,12,09,09,24,14.00
2019,12,09,09,25,14.00
2019,12,09,09,26,14.00
2019,12,09,09,27,14.00
2019,12,09,09,28,14.00
2019,12,09,09,29,14.00
2019,12,09,09,30,14.00
2019,12,09,09,31,14.00
2019,12,09,09,32,14.00
2019,12,09,09,33,14.00
2019,12,09,09,34,14.00
2019,12,09,09,35,15.00
2019,12,09,09,36,16.00
2019,12,09,09,37,17.60
2019,12,09,09,38,18.00
2019,12,09,09,39,18.00
2019,12,09,09,40,18.00
2019,12,09,09,41,18.00
2019,12,09,09,42,18.00
2019,12,09,09,43,18.00
2019,12,09,09,44,18.00
2019,12,09,09,45,18.00
2019,12,09,09,46,18.00
2019,12,09,09,47,18.30
2019,12,09,09,48,19.00
2019,12,09,09,49,19.00
2019,12,09,09,50,19.00
2019,12,09,09,51,19.00
2019,12,09,09,52,18.10
2019,12,09,09,53,19.00
2019,12,09,09,54,19.00
2019,12,09,09,55,19.00
2019,12,09,09,56,20.00
2019,12,09,09,57,21.00
2019,12,09,09,58,19.40
2019,12,09,09,59,19.00
2019,12,09,10,00,19.00
2019,12,09,10,01,19.00
2019,12,09,10,02,19.00
2019,12,09,10,03,19.00
2019,12,09,10,04,19.00
2019,12,09,10,05,19.00
2019,12,09,10,06,20.90
2019,12,09,10,07,21.40
2019,12,09,10,08,22.40
2019,12,09,10,09,21.00
2019,12,09,10,10,21.00
2019,12,09,10,11,19.70
2019,12,09,10,12,19.00
2019,12,09,10,13,19.00
2019,12,09,10,14,19.00
2019,12,09,10,15,19.60
2019,12,09,10,16,21.00
2019,12,09,10,17,21.00
2019,12,09,10,18,22.30
2019,12,09,10,19,23.00
2019,12,09,10,20,23.00
2019,12,09,10,21,23.00
2019,12,09,10,22,23.60
2019,12,09,10,23,25.40
2019,12,09,10,24,26.00
2019,12,09,10,25,26.00
2019,12,09,10,26,27.60
2019,12,09,10,27,29.90
2019,12,09,10,28,32.10
2019,12,09,10,29,33.00
2019,12,09,10,30,33.00
2019,12,09,10,31,33.00
2019,12,09,10,32,33.00
2019,12,09,10,33,34.60
2019,12,09,10,34,36.90
2019,12,09,10,35,36.60
2019,12,09,10,36,35.00
2019,12,09,10,37,35.00
2019,12,09,10,38,37.10
2019,12,09,10,39,39.70
2019,12,09,10,40,40.00
2019,12,09,10,41,41.80
2019,12,09,10,42,42.00
2019,12,09,10,43,41.40
2019,12,09,10,44,40.00
2019,12,09,10,45,40.00
2019,12,09,10,46,40.00
2019,12,09,10,47,41.60
2019,12,09,10,48,42.10
2019,12,09,10,49,44.30
2019,12,09,10,50,46.00
2019,12,09,10,51,46.00
2019,12,09,10,52,46.00
2019,12,09,10,53,46.00
2019,12,09,10,54,42.90
2019,12,09,10,55,41.90
2019,12,09,10,56,40.00
2019,12,09,10,57,40.00
2019,12,09,10,58,39.60
2019,12,09,10,59,39.00
2019,12,09,11,00,39.70
2019,12,09,11,01,40.00
2019,12,09,11,02,43.60
2019,12,09,11,03,46.00
2019,12,09,11,04,46.30
2019,12,09,11,05,47.80
2019,12,09,11,06,51.10
2019,12,09,11,07,55.00
2019,12,09,11,08,59.30
2019,12,09,11,09,59.90
2019,12,09,11,10,58.00
2019,12,09,11,11,57.40
2019,12,09,11,12,56.00
2019,12,09,11,13,56.00
2019,12,09,11,14,56.00
2019,12,09,11,15,56.00
2019,12,09,11,16,55.90
2019,12,09,11,17,54.00
2019,12,09,11,18,54.00
2019,12,09,11,19,53.60
2019,12,09,11,20,53.50
2019,12,09,11,21,53.40
2019,12,09,11,22,53.00
2019,12,09,11,23,49.40
2019,12,09,11,24,49.00
2019,12,09,11,25,49.60
2019,12,09,11,26,50.20
2019,12,09,11,27,47.90
2019,12,09,11,28,45.00
2019,12,09,11,29,42.40
2019,12,09,11,30,40.20
2019,12,09,11,31,38.60
2019,12,09,11,32,37.00
2019,12,09,11,33,37.80
2019,12,09,11,34,39.60
2019,12,09,11,35,41.30
2019,12,09,11,36,45.10
2019,12,09,11,37,46.10
2019,12,09,11,38,49.00
2019,12,09,11,39,49.00
2019,12,09,11,40,48.20
2019,12,09,11,41,47.00
2019,12,09,11,42,47.00
2019,12,09,11,43,47.00
2019,12,09,11,44,48.90
2019,12,09,11,45,51.00
2019,12,09,11,46,50.40
2019,12,09,11,47,48.20
2019,12,09,11,48,45.40
2019,12,09,11,49,42.70
2019,12,09,11,50,40.40
2019,12,09,11,51,40.10
2019,12,09,11,52,42.30
2019,12,09,11,53,44.00
2019,12,09,11,54,44.00
2019,12,09,11,55,44.00
2019,12,09,11,56,44.00
2019,12,09,11,57,42.40
2019,12,09,11,58,40.20
2019,12,09,11,59,38.60
2019,12,09,12,00,37.00
2019,12,09,12,01,36.20
2019,12,09,12,02,36.10
2019,12,09,12,03,37.00
2019,12,09,12,04,38.60
2019,12,09,12,05,41.90
2019,12,09,12,06,44.40
2019,12,09,12,07,46.30
2019,12,09,12,08,47.80
2019,12,09,12,09,50.10
2019,12,09,12,10,49.70
2019,12,09,12,11,49.00
2019,12,09,12,12,48.90
2019,12,09,12,13,45.70
2019,12,09,12,14,43.40
2019,12,09,12,15,42.00
2019,12,09,12,16,41.00
2019,12,09,12,17,40.00
2019,12,09,12,18,40.00
2019,12,09,12,19,39.10
2019,12,09,12,20,39.10
2019,12,09,12,21,40.50
2019,12,09,12,22,42.80
2019,12,09,12,23,45.00
2019,12,09,12,24,46.60
2019,12,09,12,25,48.60
2019,12,09,12,26,53.40
2019,12,09,12,27,54.90
2019,12,09,12,28,60.00
2019,12,09,12,29,60.80
2019,12,09,12,30,62.00
2019,12,09,12,31,62.00
2019,12,09,12,32,62.00
2019,12,09,12,33,62.00
2019,12,09,12,34,63.00
2019,12,09,12,35,62.70
2019,12,09,12,36,61.20
2019,12,09,12,37,57.80
2019,12,09,12,38,56.00
2019,12,09,12,39,52.10
2019,12,09,12,40,49.10
2019,12,09,12,41,47.00
2019,12,09,12,42,47.60
2019,12,09,12,43,50.60
2019,12,09,12,44,56.60
2019,12,09,12,45,61.30
2019,12,09,12,46,58.90
2019,12,09,12,47,58.00
2019,12,09,12,48,58.90
2019,12,09,12,49,65.10
2019,12,09,12,50,72.90
2019,12,09,12,51,80.60
2019,12,09,12,52,85.30
2019,12,09,12,53,84.40
2019,12,09,12,54,79.20
2019,12,09,12,55,73.40
2019,12,09,12,56,69.70
2019,12,09,12,57,66.60
2019,12,09,12,58,58.30
2019,12,09,12,59,52.00
2019,12,09,13,00,51.00
2019,12,09,13,01,51.00
2019,12,09,13,02,51.40
2019,12,09,13,03,54.00
2019,12,09,13,04,53.60
2019,12,09,13,05,53.00
2019,12,09,13,06,50.30
2019,12,09,13,07,46.70
2019,12,09,13,08,42.30
2019,12,09,13,09,41.70
2019,12,09,13,10,40.00
2019,12,09,13,11,40.00
2019,12,09,13,12,40.00
2019,12,09,13,13,42.70
2019,12,09,13,14,44.00
2019,12,09,13,15,46.70
2019,12,09,13,16,46.00
2019,12,09,13,17,46.30
2019,12,09,13,18,47.00
2019,12,09,13,19,47.00
2019,12,09,13,20,49.70
2019,12,09,13,21,52.60
2019,12,09,13,22,53.00
2019,12,09,13,23,53.00
2019,12,09,13,24,53.00
2019,12,09,13,25,53.40
2019,12,09,13,26,54.00
2019,12,09,13,27,54.00
2019,12,09,13,28,54.00
2019,12,09,13,29,53.00
2019,12,09,13,30,50.30
2019,12,09,13,31,46.00
2019,12,09,13,32,46.00
2019,12,09,13,33,46.00
2019,12,09,13,34,46.70
2019,12,09,13,35,47.00
2019,12,09,13,36,52.60
2019,12,09,13,37,53.00
2019,12,09,13,38,53.00
2019,12,09,13,39,52.20
2019,12,09,13,40,51.00
2019,12,09,13,41,48.30
2019,12,09,13,42,47.00
2019,12,09,13,43,42.40
2019,12,09,13,44,42.00
2019,12,09,13,45,42.00
2019,12,09,13,46,42.00
2019,12,09,13,47,42.00
2019,12,09,13,48,43.30
2019,12,09,13,49,45.60
2019,12,09,13,50,44.10
2019,12,09,13,51,42.00
2019,12,09,13,52,42.60
2019,12,09,13,53,44.00
2019,12,09,13,54,43.00
2019,12,09,13,55,38.90
2019,12,09,13,56,33.90
2019,12,09,13,57,32.10
2019,12,09,13,58,32.00
2019,12,09,13,59,32.30
2019,12,09,14,00,33.00
2019,12,09,14,01,32.50
2019,12,09,14,02,32.00
2019,12,09,14,03,32.00
2019,12,09,14,04,32.00
2019,12,09,14,05,32.10
2019,12,09,14,06,32.70
2019,12,09,14,07,32.00
2019,12,09,14,08,32.50
2019,12,09,14,09,34.30
2019,12,09,14,10,35.00
2019,12,09,14,11,36.80
2019,12,09,14,12,39.50
2019,12,09,14,13,42.00
2019,12,09,14,14,42.80
2019,12,09,14,15,45.60
2019,12,09,14,16,47.00
2019,12,09,14,17,47.00
2019,12,09,14,18,53.20
2019,12,09,14,19,53.90
2019,12,09,14,20,52.50
2019,12,09,14,21,51.00
2019,12,09,14,22,49.90
2019,12,09,14,23,47.00
2019,12,09,14,24,46.00
2019,12,09,14,25,44.20
2019,12,09,14,26,44.00
2019,12,09,14,27,43.50
2019,12,09,14,28,42.80
2019,12,09,14,29,44.00
2019,12,09,14,30,44.00
2019,12,09,14,31,44.00
2019,12,09,14,32,45.90
2019,12,09,14,33,46.00
2019,12,09,14,34,46.30
2019,12,09,14,35,47.80
2019,12,09,14,36,49.00
2019,12,09,14,37,49.00
2019,12,09,14,38,49.00
2019,12,09,14,39,49.00
2019,12,09,14,40,47.00
2019,12,09,14,41,47.00
2019,12,09,14,42,45.00
2019,12,09,14,43,42.00
2019,12,09,14,44,42.00
2019,12,09,14,45,42.00
2019,12,09,14,46,37.60
2019,12,09,14,47,34.70
2019,12,09,14,48,33.60
2019,12,09,14,49,35.80
2019,12,09,14,50,38.10
2019,12,09,14,51,39.00
2019,12,09,14,52,39.00
2019,12,09,14,53,32.60
2019,12,09,14,54,28.00
2019,12,09,14,55,28.00
2019,12,09,14,56,26.80
2019,12,09,14,57,24.00
2019,12,09,14,58,23.00
2019,12,09,14,59,21.40
2019,12,09,15,00,21.00
2019,12,09,15,01,21.00
2019,12,09,15,02,21.00
2019,12,09,15,03,21.00
2019,12,09,15,04,21.00
2019,12,09,15,05,21.00
2019,12,09,15,06,19.40
2019,12,09,15,07,19.00
2019,12,09,15,08,19.00
2019,12,09,15,09,18.70
2019,12,09,15,10,18.00
2019,12,09,15,11,18.00
2019,12,09,15,12,16.70
2019,12,09,15,13,16.00
2019,12,09,15,14,16.00
2019,12,09,15,15,16.00
2019,12,09,15,16,16.00
2019,12,09,15,17,16.80
2019,12,09,15,18,17.00
2019,12,09,15,19,14.70
2019,12,09,15,20,12.40
2019,12,09,15,21,12.00
2019,12,09,15,22,11.90
2019,12,09,15,23,11.00
2019,12,09,15,24,11.00
2019,12,09,15,25,10.00
2019,12,09,15,26,9.00
2019,12,09,15,27,9.00
2019,12,09,15,28,9.00
2019,12,09,15,29,9.00
2019,12,09,15,30,9.00
2019,12,09,15,31,8.20
2019,12,09,15,32,7.00
2019,12,09,15,33,7.00
2019,12,09,15,34,7.00
2019,12,09,15,35,6.90
2019,12,09,15,36,5.00
2019,12,09,15,37,5.00
2019,12,09,15,38,5.00
2019,12,09,15,39,5.00
2019,12,09,15,40,5.00
2019,12,09,15,41,5.00
2019,12,09,15,42,5.00
2019,12,09,15,43,5.00
2019,12,09,15,44,5.00
2019,12,09,15,45,5.00
2019,12,09,15,46,5.00
2019,12,09,15,47,5.00
2019,12,09,15,48,1.10
2019,12,09,15,49,0.00
2019,12,09,15,50,0.00
2019,12,09,15,51,0.00
2019,12,09,15,52,0.00
2019,12,09,15,53,0.00
2019,12,09,15,54,0.00
2019,12,09,15,55,0.00
2019,12,09,15,56,0.00
2019,12,09,15,57,0.00
2019,12,09,15,58,0.00
2019,12,09,15,59,0.00
2019,12,09,16,00,0.00
2019,12,09,16,01,0.00
2019,12,09,16,02,0.00
2019,12,09,16,03,0.00
2019,12,09,16,04,0.00
2019,12,09,16,05,0.00
2019,12,09,16,06,0.00
2019,12,09,16,07,0.00
2019,12,09,16,08,0.00
2019,12,09,16,09,0.00
2019,12,09,16,10,0.00
2019,12,09,16,11,0.00
2019,12,09,16,12,0.00
2019,12,09,16,13,0.00
2019,12,09,16,14,0.00
2019,12,09,16,15,0.00
2019,12,09,16,16,0.00
2019,12,09,16,17,0.00
2019,12,09,16,18,0.00
2019,12,09,16,19,0.00
2019,12,09,16,20,0.00
2019,12,09,16,21,0.00
2019,12,09,16,22,0.00
2019,12,09,16,23,0.00
2019,12,09,16,24,0.00
2019,12,09,16,25,0.00
2019,12,09,16,26,0.00
2019,12,09,16,27,0.00
2019,12,09,16,28,0.00
2019,12,09,16,29,0.00
2019,12,09,16,30,0.00
2019,12,09,16,31,0.00
2019,12,09,16,32,0.00
2019,12,09,16,33,0.00
2019,12,09,16,34,0.00
2019,12,09,16,35,0.00
2019,12,09,16,36,0.00
2019,12,09,16,37,0.00
2019,12,09,16,38,0.00
2019,12,09,16,39,0.00
2019,12,09,16,40,0.00
2019,12,09,16,41,0.00
2019,12,09,16,42,0.00
2019,12,09,16,43,0.00
2019,12,09,16,44,0.00
2019,12,09,16,45,0.00
2019,12,09,16,46,0.00
2019,12,09,16,47,0.00
2019,12,09,16,48,0.00
2019,12,09,16,49,0.00
2019,12,09,16,50,0.00
2019,12,09,16,51,0.00
2019,12,09,16,52,0.00
2019,12,09,16,53,0.00
2019,12,09,16,54,0.00
2019,12,09,16,55,0.00
2019,12,09,16,56,0.00
2019,12,09,16,57,0.00
2019,12,09,16,58,0.00
2019,12,09,16,59,0.00
2019,12,09,17,00,0.00
2019,12,09,17,01,0.00
2019,12,09,17,02,0.00
2019,12,09,17,03,0.00
2019,12,09,17,04,0.00
2019,12,09,17,05,0.00
2019,12,09,17,06,0.00
2019,12,09,17,07,0.00
2019,12,09,17,08,0.00
2019,12,09,17,09,0.00
2019,12,09,17,10,0.00
2019,12,09,17,11,0.00
2019,12,09,17,12,0.00
2019,12,09,17,13,0.00
2019,12,09,17,14,0.00
2019,12,09,17,15,0.00
2019,12,09,17,16,0.00
2019,12,09,17,17,0.00
2019,12,09,17,18,0.00
2019,12,09,17,19,0.00
2019,12,09,17,20,0.00
2019,12,09,17,21,0.00
2019,12,09,17,22,0.00
2019,12,09,17,23,0.00
2019,12,09,17,24,0.00
2019,12,09,17,25,0.00
2019,12,09,17,26,0.00
2019,12,09,17,27,0.00
2019,12,09,17,28,0.00
2019,12,09,17,29,0.00
2019,12,09,17,30,0.00
2019,12,09,17,31,0.00
2019,12,09,17,32,0.00
2019,12,09,17,33,0.00
2019,12,09,17,34,0.00
2019,12,09,17,35,0.00
2019,12,09,17,36,0.00
2019,12,09,17,37,0.00
2019,12,09,17,38,0.00
2019,12,09,17,39,0.00
2019,12,09,17,40,0.00
2019,12,09,17,41,0.00
2019,12,09,17,42,0.00
2019,12,09,17,43,0.00
2019,12,09,17,44,0.00
2019,12,09,17,45,0.00
2019,12,09,17,46,0.00
2019,12,09,17,47,0.00
2019,12,09,17,48,0.00